[[{"header":{"parameterUnit":"m.s-1","parameterCategory":2,"la1":30.2992,"la2":30.254,"lo1":-89.0895,"lo2":-89.0443,"dy":0.0025,"dx":0.0025,"nx":19,"ny":19,"refTime":"2026-03-27T09:00:00:Z","depth":"0","parameterNumber":2,"parameterNumberName":"U-component_of_CURRENTS"},"data":[0,0,0,-0.1334,-0.1336,-0.1394,-0.1394,-0.1393,-0.1393,0,0,0,0,0,0,0,0,0,0,0,-0.13,-0.13,-0.1334,-0.1336,-0.1394,-0.1394,-0.1393,-0.1393,0,0,0,0,0,0,0,0,0,0,0,-0.13,-0.13,-0.1301,-0.1336,-0.1394,-0.1394,-0.1393,-0.1363,0,0,0,0,0,0,0,0,0,0,-0.1314,-0.1292,-0.13,-0.1301,-0.1337,-0.1394,-0.1394,-0.1362,-0.1365,-0.1352,0,-0.1368,0,-0.1395,-0.1393,-0.1393,0,0,0,-0.1316,-0.129,-0.1321,-0.1301,-0.1337,-0.1394,-0.1362,-0.1364,-0.1367,-0.1355,-0.1369,-0.137,-0.1395,-0.1393,-0.1393,-0.1474,-0.1475,0,0,-0.1313,-0.1292,-0.1319,-0.1323,-0.1361,-0.136,-0.1364,-0.1367,-0.1362,-0.1369,-0.137,-0.1395,-0.1393,-0.1393,-0.1473,-0.1474,0,0,0,-0.1317,-0.129,-0.1322,-0.1322,-0.1347,-0.1362,-0.1367,-0.1362,-0.1377,-0.1371,-0.1395,-0.1393,-0.1393,-0.1472,-0.1474,-0.1531,0,0,0,-0.1314,-0.1295,-0.132,-0.1306,-0.1347,-0.1364,-0.1361,-0.1376,-0.1379,-0.1395,-0.1393,-0.1393,-0.1471,-0.1473,-0.1528,-0.155,0,0,0,-0.1296,-0.1292,-0.1305,-0.1305,-0.1343,-0.1365,-0.138,-0.1377,-0.1394,-0.1393,-0.1393,-0.1471,-0.1473,-0.1524,-0.1544,-0.1619,0,0,0,-0.1263,-0.1297,-0.1304,-0.1355,-0.1343,-0.1416,-0.138,-0.1414,-0.1419,-0.1393,-0.1471,-0.1473,-0.1523,-0.1541,-0.1615,-0.1608,-0.1625,0,0,-0.1294,-0.13,-0.1336,-0.1346,-0.1428,-0.1406,-0.1481,-0.1464,-0.1446,-0.1459,-0.1461,-0.1529,-0.1544,-0.1618,-0.1728,-0.1741,0,0,0,-0.1339,-0.136,-0.1389,-0.1437,-0.1484,-0.152,-0.1517,-0.1524,-0.1543,-0.1465,-0.1555,-0.1563,-0.1608,-0.1596,-0.1608,-0.1413,-0.1483,-0.1483,-0.1483,-0.1329,-0.1382,-0.144,-0.1504,-0.1549,-0.1597,-0.1631,-0.164,-0.1604,-0.1633,-0.163,-0.1751,-0.174,-0.1749,-0.1548,-0.1654,-0.1655,-0.1655,-0.1655,-0.1368,-0.1401,-0.1468,-0.1537,-0.1594,-0.1645,-0.1723,-0.1721,-0.1784,-0.1724,-0.1765,-0.1681,-0.1764,-0.1546,-0.1659,-0.1658,-0.1658,-0.1657,-0.1657,-0.1342,-0.1366,-0.1413,-0.1505,-0.1583,-0.1659,-0.1756,-0.1796,-0.1834,-0.1877,-0.1869,-0.1867,-0.1659,-0.1897,-0.1897,-0.1898,-0.1898,-0.1898,-0.1899,-0.1282,-0.1339,-0.1372,-0.1473,-0.1523,-0.1617,-0.1764,-0.185,-0.1938,-0.1941,-0.1941,-0.1681,-0.1825,-0.1797,-0.1906,-0.1904,-0.1903,-0.1903,-0.1902,-0.1254,-0.1259,-0.1311,-0.1355,-0.1486,-0.1578,-0.1745,-0.1944,-0.2036,-0.2091,-0.1787,-0.1988,-0.1972,-0.1962,-0.1938,-0.2077,-0.2077,-0.2077,-0.2077,-0.1201,-0.122,-0.1254,-0.1313,-0.1421,-0.1556,-0.1719,-0.1862,-0.1869,-0.1772,-0.1748,-0.1647,-0.1648,-0.1606,-0.1604,-0.1569,-0.1612,-0.161,-0.161,-0.1171,-0.1186,-0.1187,-0.1257,-0.1384,-0.1534,-0.1644,-0.1633,-0.1574,-0.1568,-0.1479,-0.1499,-0.1324,-0.1343,-0.1253,-0.1266,-0.12,0,0]},{"header":{"parameterUnit":"m.s-1","parameterCategory":2,"la1":30.2992,"la2":30.254,"lo1":-89.0895,"lo2":-89.0443,"dy":0.0025,"dx":0.0025,"nx":19,"ny":19,"refTime":"2026-03-27T09:00:00:Z","depth":"0","parameterNumber":3,"parameterNumberName":"V-component_of_CURRENTS"},"data":[0,0,0,-0.1193,-0.1191,-0.1055,-0.1054,-0.0856,-0.0854,0,0,0,0,0,0,0,0,0,0,0,-0.124,-0.124,-0.1194,-0.1191,-0.1055,-0.1054,-0.0856,-0.0854,0,0,0,0,0,0,0,0,0,0,0,-0.124,-0.124,-0.1239,-0.1191,-0.1055,-0.1054,-0.0856,-0.0959,0,0,0,0,0,0,0,0,0,0,-0.1093,-0.1152,-0.124,-0.1239,-0.119,-0.1055,-0.1054,-0.0964,-0.0953,-0.0918,0,-0.0911,0,-0.0887,-0.0842,-0.0842,0,0,0,-0.1168,-0.1161,-0.1125,-0.1239,-0.1189,-0.1055,-0.111,-0.0958,-0.0945,-0.0903,-0.0908,-0.09,-0.0884,-0.0841,-0.084,-0.0781,-0.0781,0,0,-0.1175,-0.1208,-0.1134,-0.1117,-0.1171,-0.1114,-0.1106,-0.095,-0.0943,-0.0907,-0.0896,-0.0881,-0.084,-0.0839,-0.078,-0.0781,0,0,0,-0.1213,-0.1214,-0.118,-0.1126,-0.1108,-0.1111,-0.1101,-0.095,-0.094,-0.0893,-0.0878,-0.0839,-0.0837,-0.0779,-0.078,-0.0909,0,0,0,-0.1216,-0.1237,-0.1184,-0.1201,-0.1112,-0.1032,-0.1105,-0.095,-0.0932,-0.0879,-0.0839,-0.0835,-0.0778,-0.078,-0.0904,-0.0967,0,0,0,-0.1243,-0.1239,-0.1229,-0.1203,-0.1155,-0.1034,-0.1013,-0.0945,-0.0924,-0.0842,-0.0835,-0.0778,-0.0779,-0.09,-0.0959,-0.0965,0,0,0,-0.1272,-0.1289,-0.123,-0.1242,-0.1157,-0.1121,-0.1014,-0.0965,-0.0908,-0.0838,-0.0779,-0.078,-0.0898,-0.0954,-0.0961,-0.0827,-0.0835,0,0,-0.1317,-0.1295,-0.1304,-0.1248,-0.1252,-0.1137,-0.1131,-0.1006,-0.0917,-0.0822,-0.082,-0.0906,-0.0958,-0.0964,-0.0917,-0.0922,0,0,0,-0.1333,-0.1344,-0.1333,-0.1317,-0.1264,-0.1221,-0.1103,-0.1054,-0.0971,-0.0892,-0.0901,-0.093,-0.0929,-0.084,-0.0845,-0.0453,-0.0787,-0.0787,-0.0787,-0.1431,-0.1405,-0.1426,-0.1389,-0.1366,-0.1276,-0.1239,-0.1149,-0.1047,-0.1043,-0.1032,-0.1122,-0.103,-0.1032,-0.0631,-0.1023,-0.1024,-0.1024,-0.1024,-0.1506,-0.1515,-0.1496,-0.1508,-0.1463,-0.1446,-0.1353,-0.1289,-0.1226,-0.1147,-0.1139,-0.0977,-0.1045,-0.0615,-0.1033,-0.1031,-0.103,-0.1029,-0.1029,-0.1561,-0.1564,-0.1571,-0.1592,-0.1607,-0.1544,-0.1561,-0.1466,-0.1345,-0.1351,-0.1171,-0.1166,-0.0785,-0.1318,-0.1319,-0.1319,-0.1319,-0.1319,-0.132,-0.1603,-0.1612,-0.1656,-0.1677,-0.1706,-0.1722,-0.1671,-0.1628,-0.1442,-0.13,-0.1297,-0.0755,-0.121,-0.1196,-0.1325,-0.1324,-0.1323,-0.1323,-0.1323,-0.1638,-0.1651,-0.1727,-0.1768,-0.1841,-0.191,-0.185,-0.1685,-0.1574,-0.145,-0.0722,-0.1241,-0.1173,-0.1165,-0.1147,-0.1257,-0.1257,-0.1257,-0.1257,-0.1655,-0.1669,-0.1777,-0.1868,-0.1957,-0.1994,-0.1956,-0.1646,-0.1002,-0.0553,-0.0476,-0.0326,-0.0346,-0.022,-0.0233,-0.0192,-0.0057,-0.0055,-0.0053,-0.1656,-0.1707,-0.1784,-0.1894,-0.2008,-0.2093,-0.2005,-0.1367,-0.029,0.0033,0.0043,-0.0009,0.0246,0.0183,0.0409,0.0359,0.0434,0,0]}],[{"header":{"parameterUnit":"m.s-1","parameterCategory":2,"la1":30.2992,"la2":30.254,"lo1":-89.0895,"lo2":-89.0443,"dy":0.0025,"dx":0.0025,"nx":19,"ny":19,"refTime":"2026-03-27T09:00:00:Z","depth":"2","parameterNumber":2,"parameterNumberName":"U-component_of_CURRENTS"},"data":[0,0,0,-0.1561,-0.1563,-0.1691,-0.1691,-0.1783,-0.1783,0,0,0,0,0,0,0,0,0,0,0,-0.1507,-0.1507,-0.1561,-0.1563,-0.169,-0.1691,-0.1783,-0.1783,0,0,0,0,0,0,0,0,0,0,0,-0.1507,-0.1507,-0.1507,-0.1564,-0.169,-0.1691,-0.1783,-0.1709,0,0,0,0,0,0,0,0,0,0,-0.1596,-0.1549,-0.1507,-0.1507,-0.1564,-0.169,-0.1691,-0.1706,-0.1713,-0.1699,0,-0.1702,0,-0.1739,-0.1786,-0.1786,0,0,0,-0.1582,-0.1543,-0.1575,-0.1507,-0.1565,-0.169,-0.1638,-0.1711,-0.1719,-0.1708,-0.1703,-0.1708,-0.1741,-0.1786,-0.1787,-0.1833,-0.1834,0,0,-0.1575,-0.1536,-0.157,-0.158,-0.1574,-0.1634,-0.1642,-0.1717,-0.1713,-0.1704,-0.1711,-0.1742,-0.1787,-0.1787,-0.1833,-0.1834,0,0,0,-0.1542,-0.1531,-0.1564,-0.1575,-0.1601,-0.1637,-0.1647,-0.1711,-0.172,-0.1712,-0.1743,-0.1787,-0.1787,-0.1833,-0.1833,-0.1836,0,0,0,-0.1539,-0.1511,-0.156,-0.154,-0.1599,-0.1667,-0.1638,-0.1715,-0.1726,-0.1743,-0.1787,-0.1788,-0.1833,-0.1833,-0.1836,-0.1854,0,0,0,-0.1505,-0.1508,-0.1515,-0.1537,-0.1586,-0.1667,-0.1683,-0.1719,-0.1743,-0.1786,-0.1788,-0.1833,-0.1833,-0.1835,-0.1852,-0.1876,0,0,0,-0.1474,-0.1478,-0.1514,-0.153,-0.1584,-0.1651,-0.1683,-0.1729,-0.1761,-0.1787,-0.1833,-0.1833,-0.1835,-0.1852,-0.1875,-0.169,-0.168,0,0,-0.1465,-0.1476,-0.1489,-0.1525,-0.1577,-0.1637,-0.1704,-0.1751,-0.1766,-0.1806,-0.1808,-0.1836,-0.1852,-0.1876,-0.1717,-0.1706,0,0,0,-0.1479,-0.1483,-0.1503,-0.1544,-0.1601,-0.1679,-0.1734,-0.1759,-0.1808,-0.1786,-0.1845,-0.1856,-0.187,-0.1756,-0.1748,-0.1836,-0.1835,-0.1835,-0.1835,-0.1441,-0.1481,-0.1511,-0.1569,-0.1614,-0.1705,-0.176,-0.1808,-0.1811,-0.1829,-0.1863,-0.1894,-0.1771,-0.1763,-0.1861,-0.1861,-0.1861,-0.1861,-0.1861,-0.1432,-0.1452,-0.1517,-0.1554,-0.164,-0.1701,-0.1802,-0.1823,-0.1891,-0.1881,-0.1894,-0.1772,-0.1753,-0.1862,-0.1862,-0.1862,-0.1862,-0.1862,-0.1862,-0.1381,-0.1405,-0.1431,-0.1518,-0.1603,-0.1707,-0.1786,-0.1864,-0.1898,-0.1924,-0.1807,-0.1804,-0.1903,-0.193,-0.193,-0.193,-0.193,-0.193,-0.193,-0.1327,-0.1363,-0.1393,-0.1488,-0.1535,-0.1632,-0.1785,-0.182,-0.1825,-0.1811,-0.1809,-0.1917,-0.1915,-0.1908,-0.1933,-0.1933,-0.1932,-0.1932,-0.1932,-0.1287,-0.1286,-0.1323,-0.1356,-0.1464,-0.1468,-0.1617,-0.1634,-0.1708,-0.1652,-0.174,-0.1744,-0.1731,-0.1735,-0.1724,-0.17,-0.17,-0.17,-0.17,-0.1244,-0.1258,-0.1246,-0.1262,-0.1324,-0.1374,-0.1283,-0.13,-0.1412,-0.1441,-0.1453,-0.1373,-0.1387,-0.1353,-0.1366,-0.1347,-0.1225,-0.1225,-0.1224,-0.1235,-0.1218,-0.117,-0.1172,-0.1226,-0.1216,-0.1063,-0.095,-0.1058,-0.1211,-0.1431,-0.1657,-0.1566,-0.1578,-0.1548,-0.1559,-0.1538,0,0]},{"header":{"parameterUnit":"m.s-1","parameterCategory":2,"la1":30.2992,"la2":30.254,"lo1":-89.0895,"lo2":-89.0443,"dy":0.0025,"dx":0.0025,"nx":19,"ny":19,"refTime":"2026-03-27T09:00:00:Z","depth":"2","parameterNumber":3,"parameterNumberName":"V-component_of_CURRENTS"},"data":[0,0,0,0.0076,0.0076,0.0136,0.0136,0.0222,0.0223,0,0,0,0,0,0,0,0,0,0,0,0.0058,0.0058,0.0076,0.0076,0.0136,0.0136,0.0222,0.0223,0,0,0,0,0,0,0,0,0,0,0,0.0058,0.0058,0.0058,0.0076,0.0135,0.0136,0.0222,0.0181,0,0,0,0,0,0,0,0,0,0,0.0124,0.01,0.0058,0.0058,0.0076,0.0135,0.0136,0.0179,0.0183,0.0191,0,0.0185,0,0.0193,0.0227,0.0227,0,0,0,0.0101,0.0096,0.0104,0.0058,0.0076,0.0135,0.0116,0.0182,0.0186,0.0196,0.0186,0.0189,0.0195,0.0227,0.0227,0.0243,0.0243,0,0,0.0098,0.0082,0.01,0.0106,0.0072,0.0114,0.0117,0.0185,0.0186,0.0186,0.0191,0.0196,0.0227,0.0228,0.0244,0.0243,0,0,0,0.0071,0.008,0.0087,0.0103,0.0106,0.0115,0.0119,0.0184,0.0183,0.0192,0.0197,0.0228,0.0228,0.0244,0.0244,0.0167,0,0,0,0.0071,0.0063,0.0085,0.0079,0.0104,0.0144,0.0117,0.0179,0.0186,0.0197,0.0228,0.0229,0.0244,0.0244,0.017,0.0132,0,0,0,0.0059,0.0062,0.0061,0.0077,0.0091,0.0143,0.0148,0.0181,0.0188,0.0227,0.0229,0.0244,0.0244,0.0172,0.0137,0.0142,0,0,0,0.0054,0.0027,0.006,0.0031,0.0089,0.0087,0.0148,0.0159,0.0183,0.0228,0.0244,0.0244,0.0173,0.014,0.0145,0.0162,0.0153,0,0,0.0013,0.0022,0.0002,0.0032,0.0002,0.0082,0.0071,0.013,0.0182,0.0228,0.0229,0.0169,0.0137,0.0143,0.0129,0.0121,0,0,0,-0.0016,-0.0032,-0.0035,-0.0043,-0.0026,-0.0002,0.0062,0.01,0.015,0.019,0.0179,0.0161,0.0168,0.0183,0.0177,0.0241,0.0241,0.0241,0.0241,-0.0071,-0.0074,-0.0117,-0.0116,-0.0109,-0.0056,-0.0024,0.0043,0.0096,0.0108,0.0106,0.0067,0.0081,0.0077,0.0118,0.0118,0.0117,0.0117,0.0117,-0.015,-0.0182,-0.0181,-0.022,-0.0192,-0.0183,-0.0103,-0.0053,0.001,0.0052,0.0063,0.0109,0.0066,0.0111,0.0112,0.0113,0.0114,0.0114,0.0115,-0.0188,-0.021,-0.0232,-0.0292,-0.0303,-0.0261,-0.0248,-0.0167,-0.0066,-0.0058,0.0006,0.0008,0.003,-0.004,-0.004,-0.0041,-0.0041,-0.0041,-0.0041,-0.022,-0.025,-0.0321,-0.0366,-0.0399,-0.0404,-0.0327,-0.0269,-0.0153,-0.0074,-0.0072,0.0015,0.002,0.0023,-0.0043,-0.0043,-0.0043,-0.0042,-0.0042,-0.028,-0.0292,-0.0403,-0.0455,-0.0534,-0.0546,-0.046,-0.0315,-0.0231,-0.0163,-0.0061,-0.006,-0.0024,-0.0018,-0.0015,-0.0087,-0.0087,-0.0087,-0.0087,-0.0315,-0.0332,-0.0478,-0.0575,-0.0646,-0.0615,-0.0531,-0.0348,-0.0171,-0.0085,-0.0085,-0.0058,-0.0056,-0.002,-0.0014,-0.0009,-0.008,-0.008,-0.008,-0.0364,-0.0403,-0.0504,-0.0605,-0.0693,-0.0673,-0.0569,-0.0307,-0.0073,-0.008,-0.0089,-0.0085,-0.0044,-0.0042,0.0019,0.0026,0.0037,0,0]}],[{"header":{"parameterUnit":"m.s-1","parameterCategory":2,"la1":30.2992,"la2":30.254,"lo1":-89.0895,"lo2":-89.0443,"dy":0.0025,"dx":0.0025,"nx":19,"ny":19,"refTime":"2026-03-27T09:00:00:Z","depth":"4","parameterNumber":2,"parameterNumberName":"U-component_of_CURRENTS"},"data":[0,0,0,-0.1053,-0.1056,-0.1186,-0.1187,-0.1305,-0.1306,0,0,0,0,0,0,0,0,0,0,0,-0.1009,-0.101,-0.1053,-0.1056,-0.1186,-0.1187,-0.1305,-0.1306,0,0,0,0,0,0,0,0,0,0,0,-0.1009,-0.101,-0.1011,-0.1056,-0.1186,-0.1187,-0.1305,-0.122,0,0,0,0,0,0,0,0,0,0,-0.11,-0.1063,-0.101,-0.1011,-0.1057,-0.1186,-0.1187,-0.1216,-0.1225,-0.1231,0,-0.1254,0,-0.128,-0.1313,-0.1313,0,0,0,-0.1061,-0.1055,-0.1091,-0.1011,-0.1058,-0.1186,-0.1129,-0.1222,-0.1231,-0.1242,-0.1256,-0.1261,-0.1282,-0.1313,-0.1314,-0.1422,-0.1422,0,0,-0.1054,-0.1032,-0.1085,-0.1098,-0.1095,-0.1125,-0.1133,-0.1228,-0.1238,-0.1256,-0.1264,-0.1284,-0.1314,-0.1315,-0.1421,-0.1422,0,0,0,-0.103,-0.1027,-0.1062,-0.1092,-0.1119,-0.1128,-0.1138,-0.1234,-0.1246,-0.1265,-0.1285,-0.1314,-0.1316,-0.1421,-0.1422,-0.1434,0,0,0,-0.1026,-0.1013,-0.1059,-0.1047,-0.1117,-0.1184,-0.1141,-0.124,-0.1251,-0.1285,-0.1314,-0.1316,-0.142,-0.1421,-0.1433,-0.1428,0,0,0,-0.1003,-0.101,-0.1027,-0.1046,-0.11,-0.1183,-0.1202,-0.1243,-0.1263,-0.1313,-0.1317,-0.142,-0.1421,-0.1432,-0.1426,-0.1439,0,0,0,-0.0974,-0.0998,-0.1026,-0.1066,-0.1099,-0.1185,-0.1202,-0.1271,-0.1316,-0.1315,-0.142,-0.1421,-0.1431,-0.1425,-0.1438,-0.1237,0,0,0,-0.0984,-0.0998,-0.1024,-0.1052,-0.1125,-0.1167,-0.1249,-0.1311,-0.1333,-0.1385,-0.1388,-0.1433,-0.1426,-0.1439,-0.1305,0,0,0,0,-0.1014,-0.1031,-0.106,-0.1113,-0.1178,-0.1247,-0.1312,-0.134,-0.1404,-0.1365,-0.1453,-0.1448,-0.1455,-0.1336,-0.1427,-0.1427,-0.1427,-0.1426,-0.1426,-0.0983,-0.1033,-0.1082,-0.1154,-0.1214,-0.1309,-0.1361,-0.1413,-0.1431,-0.1462,-0.1473,-0.151,-0.1387,-0.1495,-0.1495,-0.1495,-0.1496,-0.1496,-0.1496,-0.0987,-0.1011,-0.1093,-0.1158,-0.1244,-0.1316,-0.1415,-0.1443,-0.1505,-0.1507,-0.1514,-0.1376,-0.1497,-0.1497,-0.1497,-0.1497,-0.1496,-0.1496,-0.1496,-0.0945,-0.0963,-0.1024,-0.1121,-0.1215,-0.1317,-0.1374,-0.1456,-0.1508,-0.1529,-0.1405,-0.152,-0.1501,-0.1538,-0.1538,-0.1538,-0.1538,-0.1538,-0.1538,-0.0865,-0.0929,-0.0964,-0.1081,-0.1134,-0.1222,-0.1354,-0.1384,-0.1466,-0.1395,-0.1534,-0.1524,-0.1523,-0.1505,-0.1539,-0.1539,-0.1539,-0.1539,-0.1539,-0.0793,-0.0831,-0.0867,-0.0917,-0.1031,-0.109,-0.124,-0.1268,-0.1288,-0.1264,-0.1323,-0.1333,-0.1307,-0.1311,-0.1284,-0.1255,-0.1252,-0.125,0,-0.0725,-0.0753,-0.0773,-0.0809,-0.086,-0.0997,-0.0983,-0.1055,-0.1133,-0.109,-0.1291,-0.1356,-0.1363,-0.1333,-0.1333,-0.13,0,0,0,-0.067,-0.0687,-0.0665,-0.0721,-0.0773,-0.0849,-0.0971,-0.0946,-0.1128,-0.1087,-0.1187,-0.1204,-0.1402,-0.1541,-0.1526,-0.1525,-0.1495,0,0]},{"header":{"parameterUnit":"m.s-1","parameterCategory":2,"la1":30.2992,"la2":30.254,"lo1":-89.0895,"lo2":-89.0443,"dy":0.0025,"dx":0.0025,"nx":19,"ny":19,"refTime":"2026-03-27T09:00:00:Z","depth":"4","parameterNumber":3,"parameterNumberName":"V-component_of_CURRENTS"},"data":[0,0,0,0.0001,0.0002,0.0015,0.0015,0.0053,0.0054,0,0,0,0,0,0,0,0,0,0,0,-0.0001,-0.0001,0.0001,0.0002,0.0015,0.0015,0.0053,0.0054,0,0,0,0,0,0,0,0,0,0,0,-0.0001,-0.0001,-0.0001,0.0002,0.0015,0.0015,0.0053,0.004,0,0,0,0,0,0,0,0,0,0,0.0024,0.0016,-0.0001,-0.0001,0.0002,0.0015,0.0015,0.0039,0.004,0.0051,0,0.0049,0,0.0049,0.0056,0.0056,0,0,0,0.0009,0.0015,0.0017,-0.0001,0.0002,0.0015,0.0011,0.004,0.0041,0.0053,0.0049,0.0051,0.0049,0.0056,0.0056,0.008,0.008,0,0,0.0008,0.0005,0.0015,0.0018,0.0,0.0011,0.0011,0.0041,0.0042,0.005,0.0051,0.005,0.0057,0.0057,0.008,0.008,0,0,0,0.0001,0.0004,0.0005,0.0017,0.0015,0.0011,0.0012,0.0041,0.0041,0.0052,0.005,0.0057,0.0057,0.008,0.008,0.0037,0,0,0,0.0001,-0.0001,0.0005,0.0004,0.0014,0.0025,0.0011,0.0039,0.0042,0.005,0.0057,0.0057,0.008,0.008,0.0038,0.001,0,0,0,-0.0001,-0.0001,-0.0001,0.0003,0.0005,0.0024,0.0026,0.0039,0.0041,0.0056,0.0058,0.008,0.008,0.0039,0.0013,0.0023,0,0,0,-0.0002,-0.0017,-0.0001,-0.0019,0.0005,-0.0001,0.0026,0.0028,0.0038,0.0057,0.008,0.008,0.004,0.0014,0.0024,-0.0,0,0,0,-0.0025,-0.002,-0.0032,-0.0018,-0.0041,-0.0002,-0.0011,0.0015,0.0044,0.0073,0.0074,0.0038,0.0013,0.0024,-0.0,0,0,0,0,-0.0042,-0.0052,-0.0056,-0.0065,-0.0057,-0.0051,-0.0018,0.0005,0.0034,0.0049,0.005,0.0035,0.0044,0.0033,0.008,0.008,0.008,0.008,0.008,-0.007,-0.0077,-0.0106,-0.0111,-0.0109,-0.008,-0.0063,-0.0022,0.001,0.0021,0.001,-0.0001,-0.0014,0.0026,0.0026,0.0026,0.0025,0.0025,0.0025,-0.0119,-0.0141,-0.0149,-0.0179,-0.0166,-0.0163,-0.011,-0.0078,-0.0034,-0.0012,-0.0001,-0.0001,0.0021,0.0022,0.0023,0.0023,0.0023,0.0024,0.0024,-0.0141,-0.0156,-0.0179,-0.0227,-0.0243,-0.0219,-0.0214,-0.0158,-0.0082,-0.0073,-0.0056,-0.0021,-0.0026,-0.0058,-0.0058,-0.0058,-0.0058,-0.0059,-0.0059,-0.0153,-0.018,-0.0235,-0.0277,-0.0309,-0.0321,-0.0273,-0.0232,-0.0154,-0.0109,-0.0082,-0.0029,-0.0026,-0.003,-0.006,-0.006,-0.0059,-0.0059,-0.0059,-0.0179,-0.0198,-0.028,-0.0327,-0.0403,-0.0409,-0.0368,-0.0269,-0.0221,-0.0161,-0.0111,-0.0108,-0.009,-0.0086,-0.0091,-0.0141,-0.0141,-0.0141,0,-0.0192,-0.021,-0.0324,-0.0409,-0.0471,-0.0462,-0.0411,-0.0344,-0.0233,-0.0233,-0.0219,-0.0168,-0.0163,-0.0149,-0.0145,-0.0155,0,0,0,-0.0214,-0.0249,-0.0329,-0.0424,-0.0501,-0.0446,-0.0397,-0.0357,-0.0255,-0.02,-0.0152,-0.0149,-0.0128,-0.0064,-0.0029,-0.0025,-0.0029,0,0]}]]